Location: Gheorghe Laz?r
(45.4167°N, 23.3667°E)
Time: 16:05:09
(UTC+00:00)

Daily predictions for brighter satellites

Satellite Brightness Start Highest point End
(mag) Time Altitude Azimuth Time Altitude Azimuth Time Altitude Azimuth
Cosmos 2297 Rocket 2.7 16:13:26 10° S 16:18:40 40° ESE 16:23:55 10° NE
Cosmos 44 Rocket 4.5 16:15:18 10° SSE 16:19:11 24° ESE 16:23:10 10° ENE
UNK 4.3 16:16:03 10° N 16:20:34 62° WNW 16:25:04 10° SSW
Cosmos 1455 Rocket 4.1 16:17:36 10° NNE 16:21:04 23° ENE 16:24:30 10° SE
YAOGAN 1 2.9 16:17:55 10° SE 16:21:54 41° ENE 16:25:55 10° N
Aureole 3 Rocket 3.5 16:18:57 10° NNE 16:22:14 26° ENE 16:25:00 10° SE
PSLV R/B 4.4 16:19:59 10° SE 16:23:27 27° ENE 16:26:55 10° N
Cosmos 2061 Rocket 4.1 16:17:13 10° N 16:23:33 63° ENE 16:29:47 10° SSE
SPOT 1/Viking Rocket 3.5 16:20:04 10° SSE 16:25:11 79° ENE 16:30:19 10° N
COSMO-SKYMED 1 3.2 16:21:47 10° NNE 16:25:31 32° E 16:29:12 10° SSE
CZ-4C R/B 2.0 16:22:27 10° SW 16:26:35 70° NW 16:31:53 10° NE
Cosmos 2292 Rocket 4.3 16:25:42 10° SSW 16:28:24 37° WNW 16:31:20 10° N
Meteor 2-1 Rocket 4.3 16:22:44 10° N 16:28:33 65° ENE 16:34:24 10° SSE
Lacrosse 5 rocket 2.9 16:26:14 10° WNW 16:28:57 21° NNW 16:31:45 10° NNE
SL-16 R/B 4.1 16:23:43 10° N 16:29:17 37° WNW 16:34:53 10° SW
Cosmos 192 4.4 16:25:52 10° NNW 16:30:47 84° WSW 16:35:39 10° SSE
CZ-2D R/B 3.6 16:28:57 10° SE 16:32:40 44° ENE 16:36:29 10° N
USA 267 3.7 16:29:16 10° NE 16:35:42 60° NNW 16:42:05 10° WSW
Okean 1 Rocket 3.0 16:32:09 10° N 16:36:31 66° E 16:40:50 10° SSE
Cosmos 1356 Rocket 3.6 16:34:36 10° NNW 16:38:32 72° W 16:42:29 10° S
Cosmos 2221 Rocket 3.6 16:37:01 10° S 16:41:26 69° E 16:45:55 10° NNE
Okean 2 Rocket 3.0 16:37:11 10° N 16:41:35 87° ENE 16:45:57 10° S
IRS-P3 4.4 16:37:40 10° S 16:42:59 77° WSW 16:48:20 10° NNW
Cosmos 2263 Rocket 3.6 16:43:54 10° SE 16:47:29 17° E 16:49:56 13° ENE
Cosmos 1602 4.4 16:46:03 10° SE 16:47:50 17° E 16:47:50 17° E
Cosmos 1980 3.7 16:43:24 10° NNW 16:49:03 66° ENE 16:54:39 10° SE
SJ-6B 3.7 16:46:35 10° ESE 16:49:16 21° ENE 16:51:56 10° NNE
ATLAS 5 CENTAUR R/B 4.2 16:45:29 10° WNW 16:49:21 27° WSW 16:53:55 10° S
COSMOS 2428 3.5 16:46:33 10° NNW 16:52:09 57° WSW 16:57:44 10° S
Cosmos 1025 Rocket 3.4 16:48:22 10° SSW 16:52:39 69° W 16:56:59 10° N
Cosmos 2237 Rocket 2.2 16:48:40 10° NNW 16:54:21 67° ENE 17:00:00 10° SE
Sich 1 Rocket 3.7 16:51:56 10° N 16:56:29 82° W 17:01:02 10° S
Meteor 1-27 4.4 16:51:00 10° N 16:56:42 55° ENE 17:02:24 10° SSE
NOSS 3-3 (C) 4.2 16:55:40 10° SW 17:00:49 62° NW 17:07:01 10° NE
SKYMED 2 4.2 16:56:59 10° N 17:01:17 60° WNW 17:05:32 10° SSW
Cosmos 1570 Rocket 4.0 16:56:13 10° S 17:01:27 68° ESE 17:06:41 10° NNE
SeaSat 1 3.2 16:57:02 10° SSE 17:01:48 54° WSW 17:06:37 10° NW
Cosmos 1125 Rocket 3.7 16:57:05 10° NNW 17:02:17 74° WSW 17:07:27 10° SSE
Resurs 1-3 3.9 16:58:58 10° S 17:03:14 68° WSW 17:07:32 10° NNW
SJ-7 4.0 17:01:24 10° SSE 17:05:06 87° ENE 17:08:47 10° NNW
Resurs 01 Rocket 1.7 17:01:05 10° SSE 17:05:21 55° ENE 17:09:41 10° N
SPOT 5 4.0 17:06:50 21° E 17:08:19 24° ENE 17:12:19 10° N
USA 234 4.1 17:06:06 10° SSE 17:12:26 51° SW 17:18:48 10° WNW
DMSP B5D1-3 4.5 17:09:04 10° NNE 17:14:09 63° ESE 17:19:12 10° S
Cosmos 2227 Rocket 2.3 17:12:28 10° S 17:17:53 51° ESE 17:23:21 10° NE
Spot 4 Rocket 4.3 17:12:58 10° S 17:18:04 72° WSW 17:23:11 10° NNW
NOAA 6 4.0 17:13:07 10° SSE 17:18:16 87° WSW 17:23:28 10° NNW
SL-16 R/B 2.9 17:14:54 10° NNW 17:20:02 34° NE 17:22:04 26° E
Cosmos 2208 Rocket 3.9 17:17:16 10° SSW 17:22:28 74° ESE 17:27:46 10° NNE
Cosmos 773 Rocket 3.9 17:17:23 10° SSW 17:22:39 80° ESE 17:27:57 10° NNE
Tiangong -1.1 17:20:00 10° SW 17:22:53 33° S 17:23:23 31° SSE
CARTOSAT-1 3.9 17:22:42 10° S 17:26:52 66° W 17:31:04 10° NNW
Cosmos 1346 Rocket 2.9 17:25:18 10° SSE 17:28:21 42° ESE 17:28:21 42° ESE
CZ-4 R/B 3.5 17:42:57 13° NNE 17:42:57 13° NNE 17:43:29 10° N
Gbstr 26 Del rocket 4.5 17:34:56 10° SSW 17:41:25 50° SE 17:44:25 33° E
CZ-4B R/B 4.3 17:44:18 25° NE 17:44:18 25° NE 17:47:27 10° N
Cosmos 1816 Rocket 4.3 17:38:03 10° S 17:44:09 72° E 17:50:21 10° NNE
ARIANE 6 FM1 Upper Stage 3.8 17:42:18 10° NNW 17:45:04 28° NNE 17:45:04 28° NNE
CZ-4B DEB 4.5 17:47:16 42° ENE 17:47:40 42° ENE 17:52:47 10° N
Atlas Centaur 2 4.3 17:42:33 10° WSW 17:48:10 22° SSW 17:51:57 14° SSE
NOSS 3-4 (A) 3.9 17:41:44 10° NW 17:48:35 81° SW 17:55:55 13° SSE
NOSS 3-4 (C) 3.9 17:42:00 10° NW 17:48:53 82° SW 17:56:04 14° SSE
Terra 3.9 17:52:12 13° NNE 17:52:12 13° NNE 17:52:59 10° NNE
Cosmos 2150 Rocket 4.0 17:44:46 10° NNW 17:49:56 80° WSW 17:54:26 14° SSE
CSL-04 Debris 4.2 17:49:09 40° ESE 17:50:42 54° ENE 17:55:59 10° N
Cosmos 2034 Rocket 3.9 17:45:01 10° N 17:51:09 66° E 17:57:19 10° SSE
Orbus 7S? 3.6 17:44:15 10° NW 17:51:48 82° NE 17:52:36 59° ESE
Cosmos 2298 Rocket 4.0 17:47:49 10° NNW 17:53:08 81° WSW 17:57:28 15° SSE
Cosmos 1544 Rocket 3.8 17:49:33 10° N 17:52:59 48° NNE 17:52:59 48° NNE
CSL-04 Rocket 3.5 17:53:36 41° SE 17:55:17 63° ENE 18:00:30 10° N
Helios 1A Rocket 3.5 17:58:04 36° SW 17:58:04 36° SW 18:00:09 10° SSW
Cosmos 1634 Rocket 4.3 17:52:33 10° N 17:58:20 43° ENE 17:58:20 43° ENE
Cosmos 1975 Rocket 3.6 17:54:45 10° SSW 17:59:02 56° WNW 18:03:18 10° N
Cosmos 44 Rocket 4.0 17:55:25 10° SW 18:00:14 53° NW 18:03:11 23° NNE
Cosmos 2228 3.6 17:57:46 10° NNW 18:01:52 54° W 18:05:57 10° S
Cosmos 2297 Rocket 3.7 17:57:34 10° WSW 18:02:44 35° NW 18:07:56 10° NNE
Cosmos 1782 3.1 18:00:10 10° NNW 18:03:11 53° NW 18:03:11 53° NW
Lacrosse 5 rocket 3.6 18:05:07 10° NNW 18:06:24 13° N 18:06:24 13° N
Cosmos 1943 4.3 18:02:57 10° N 18:06:45 29° NNE 18:06:45 29° NNE
DNEPR-1 R/B 4.2 18:03:06 10° NW 18:08:05 75° WSW 18:10:09 41° SSE
CZ-4C R/B 4.2 18:12:33 10° WNW 18:16:01 19° NNW 18:19:25 12° NNE
Cosmos 2219 4.1 18:11:51 10° S 18:15:11 35° S 18:15:11 35° S
USA 267 4.4 18:15:08 24° NNE 18:17:59 34° N 18:23:44 10° WNW
ERS-1 Rocket 4.5 18:22:17 25° N 18:22:17 25° N 18:24:26 10° N
Cosmos 2344 3.3 18:12:28 10° SW 18:20:28 86° SE 18:23:43 37° NE
BREEZE-M DEB (TANK) 4.2 18:07:47 10° WSW 18:23:55 80° SSE 18:24:42 68° E
Feng Yun 1-1 Rocket 4.2 18:26:58 78° NE 18:26:58 78° NE 18:32:45 10° NNW
Cosmos 2263 Rocket 2.3 18:25:01 10° SSW 18:30:42 75° WNW 18:31:44 59° N
PAYLOAD B 4.4 18:36:06 65° N 18:36:06 65° N 18:40:53 10° NNW
SPOT 5 3.8 18:45:53 46° W 18:45:55 46° W 18:50:47 10° NNW
Cosmos 2227 Rocket 3.9 18:57:18 10° WSW 19:02:10 29° NW 19:05:16 18° N
SL-16 R/B 3.2 18:58:55 10° NW 19:03:58 42° W 19:03:58 42° W
